Regional Weather Roundup
Issued by NWS

Home | Current Version | Previous Version | Graphics & Text | Print | Product List | Glossary Off
Versions: 1 2 3 4 5 6 7 8 9 10 11 12 13 14 15 16 17 18 19 20 21 22 23 24 25 26 27 28 29 30 31 32 33 34 35 36 37 38 39 40 41 42 43 44 45 46 47 48 49 50

185
ASUS43 KMKX 082300
RWRWI

WISCONSIN REGIONAL WEATHER ROUNDUP
NATIONAL WEATHER SERVICE MILWAUKEE/SULLIVAN WI
500 PM CST THU DEC 08 2016

NOTE: "FAIR" INDICATES FEW OR NO CLOUDS BELOW 12,000 FEET WITH NO
SIGNIFICANT WEATHER AND/OR OBSTRUCTIONS TO VISIBILITY.

WIZ001-002-006>008-014>016-023>028-090000-
NORTHWEST WISCONSIN

CITY           SKY/WX    TMP DP  RH WIND       PRES   REMARKS
SUPERIOR ARPT  MOCLDY    24  13  63 NW9       30.39R WCI  14
ASHLAND        LGT SNOW  22  19  89 W8        30.34R FOG     WCI  12
HAYWARD        FLURRIES  21  15  78 VRB7      30.34R WCI  12
SIREN          FLURRIES  24  15  69 NW10      30.39R WCI  13
CUMBERLAND     CLOUDY    23  14  68 NW14      30.35R WCI  11
RICE LAKE      CLOUDY    24  15  68 W10       30.37R WCI  13
CHETEK         CLOUDY    24  15  71 NW6       30.36R WCI  16
LADYSMITH      FLURRIES  24  17  74 W10       30.33R WCI  14
EAU CLAIRE     CLOUDY    24  16  71 NW12      30.37R WCI  13
MENOMONIE      FLURRIES  24  17  74 W13       30.38R WCI  13
NEW RICHMOND   FLURRIES  22  15  73 NW14G20   30.40R WCI   9
OSCEOLA        FLURRIES  23  16  73 W9G21     30.45R WCI  13
$$

WIZ003>005-009-010-017-018-090000-
NORTH CENTRAL WISCONSIN

CITY           SKY/WX    TMP DP  RH WIND       PRES   REMARKS
MANITOWISH WTR LGT SNOW  21  20  95 NW9       30.23R WCI  11
ARBOR VITAE    LGT SNOW  24  19  80 NW13G21   30.22R WCI  13
WOODRUFF       LGT SNOW  24  19  80 NW13G21   30.22R WCI  13
RHINELANDER    LGT SNOW  24  20  84 NW10      30.22R FOG     WCI  14
EAGLE RIVER    CLEAR     22  16  76 NW9G17    30.20R WCI  12
LAND O LAKES   FLURRIES  23  19  87 NW9G17    30.21R WCI  13
PHILLIPS       CLOUDY    22  16  79 NW9       30.27R WCI  11
TOMAHAWK       CLOUDY    24  17  76 W8        30.25R WCI  15
MEDFORD        FLURRIES  22  15  76 NW9       30.27R WCI  11
MERRILL        FLURRIES  23  18  80 NW8       30.25R WCI  14
$$

WIZ029-030-035-036-043>047-090000-
CENTRAL WISCONSIN

CITY           SKY/WX    TMP DP  RH WIND       PRES   REMARKS
WAUSAU         CLOUDY    23  16  74 NW15      30.26R WCI  10
MOSINEE        MOCLDY    25  18  74 W10       30.28R WCI  15
MARSHFIELD     MOCLDY    21  13  71 W13       30.29R WCI   9
STEVENS POINT  CLOUDY    23  13  66 W7        30.28R WCI  14
WAUPACA        CLEAR     27  16  63 W14G20    30.28R WCI  16
WAUTOMA        CLEAR     23  16  74 W10       30.31R WCI  12
WISC RAPIDS    CLOUDY    23  16  74 NW9       30.32R WCI  13
CAMP DOUGLAS   MIX PCPN  23  18  80 W10       30.34R WCI  12
$$

WIZ011>013-019>022-031-037>040-048>050-090000-
NORTHEAST WISCONSIN

CITY           SKY/WX    TMP DP  RH WIND       PRES   REMARKS
ANTIGO         CLOUDY    24  18  78 NW14G21   30.20R WCI  11
SHAWANO        CLOUDY    30  18  59 W5        30.24R WCI  26
OCONTO         CLOUDY    28  22  79 W9        30.22R WCI  19
STURGEON BAY   MOCLDY    30  22  72 NW13G22   30.21R WCI  20
GREEN BAY      PTCLDY    30  19  63 W16       30.24R WCI  19
MANITOWOC      NOT AVBL
APPLETON       NOT AVBL
CLINTONVILLE   CLOUDY    28  18  64 W14       30.25R WCI  17
OSHKOSH        CLOUDY    25  16  68 W15       30.27R WCI  13
$$

WIZ032>034-041-042-053>061-090000-
SOUTHWEST WISCONSIN

CITY           SKY/WX    TMP DP  RH WIND       PRES   REMARKS
LA CROSSE      CLOUDY    26  17  68 NW12      30.40R WCI  16
SPARTA         FLURRIES  24  17  74 W8        30.37R WCI  16
VIROQUA        CLOUDY    22  18  87 W8        30.35R WCI  12
BOSCOBEL       CLOUDY    25  15  66 W9        30.41R WCI  15
PRAIRIE DU CHI FLURRIES  24  16  70 W12       30.42R WCI  13
PLATTEVILLE    CLOUDY    22  18  81 W9        30.38R WCI  12
$$

WIZ056-057-062-063-064-067-068-090000-
SOUTH CENTRAL WISCONSIN

CITY           SKY/WX    TMP DP  RH WIND       PRES   REMARKS
REEDSBURG      FLURRIES  23  16  74 W8        30.34R WCI  14
BARABOO/DELLS  FLURRIES  23  16  73 W9        30.33R WCI  13
LONE ROCK      NOT AVBL
MINERAL POINT  FLURRIES  25  19  80 NW10G16   30.35R WCI  15
MADISON        FLURRIES  23  16  74 W10       30.35R WCI  12
MIDDLETON      CLOUDY    24  19  80 NW9       30.35R WCI  15
WATERTOWN      CLOUDY    23  18  80 W10       30.31R WCI  13
MONROE         FLURRIES  23  18  80 W12G17    30.35R WCI  12
JANESVILLE     CLOUDY    25  18  74 NW13      30.35R WCI  13
$$

WIZ051-052-058>065-066-070>072-090000-
SOUTHEAST WISCONSIN

CITY           SKY/WX    TMP DP  RH WIND       PRES   REMARKS
MILWAUKEE      FLURRIES  26  14  60 W14G23    30.30R WCI  14
WAUKESHA       CLOUDY    21  16  79 W17G24    30.30R WCI   7
MILWAUKEE/TIMM NOT AVBL
RACINE         CLOUDY    25  14  63 W17G26    30.32R WCI  12
BURLINGTON     FLURRIES  28  21  74 W10       30.33R WCI  19
KENOSHA        CLOUDY    24  15  68 W14       30.32R WCI  12
FOND DU LAC    CLOUDY    25  15  66 W13       30.28R WCI  14
SHEBOYGAN      CLEAR     26  17  68 W14       30.25R WCI  14
WEST BEND      CLEAR     25  19  80 W10G21    30.26R WCI  15
JUNEAU         CLOUDY    23  17  76 W14       30.30R WCI  11
$$

LSZ147-162-090000-
LAKE SUPERIOR

STATION/POSITION TIME  TEMP    WIND        PRES    WAVE
                       AIR SEA DIR/SP/G            HT/PER
                 (UTC) (F)     (DEG/KT/KT) (MB)    (FT/S)
DEVILS ISLAND    2200   26     320/ 26/ 31 1027.3R
PORT WING        2230   27     290/ 16/ 23 1027.4R
SAXON HARBOR     2240   29     320/ 16/ 24 1026.4R
$$

LMZ867-665-643>646-090000-
LAKE MICHIGAN

STATION/POSITION TIME  TEMP    WIND        PRES    WAVE
                       AIR SEA DIR/SP/G            HT/PER
                 (UTC) (F)     (DEG/KT/KT) (MB)    (FT/S)
CHAMBERS ISLAND  2240   32     320/ 17/ 20 1021.7R
NORTHPORT PIER   2240   33     320/ 19/ 24 1021.7R
SISTER BAY       2250   31     320/ 22/ 26   N/A
ALGOMA LAKESHORE 2236          300/ 11/ 16   N/A
KEWAUNEE LAKESHO 2230   29     290/ 13/ 16 1022.1R
SHEBOYGAN LAKESH 2200   27     280/ 16/ 19 1024.2R
PORT WASHINGTON  2230   26     270/  7/ 16 1025.7R
MILWAUKEE LAKESH 2230   26     300/ 16/ 18   N/A
KENOSHA   LAKESH 2200   25     280/ 16/ 24 1025.7
$$

TC  - TEMPERATURE IN CELSIUS
VSB - VISIBILITY IN STATUTE MILES
WCI - WIND CHILL INDEX
HX  - HEAT INDEX





USA.gov is the U.S. government's official web portal to all federal, state and local government web resources and services.